HDGA4: War Eagle Creek At Hindsville, AR

                                SHEF ID:       HDGA4     War Eagle Crk nr Hindsville,AR
STATION TYPE:

STAGE RIV-FLOW WTR-TEMP CONDUCT BAT-LOAD
ft cfs F umho/cm volt
Ccp-Rev Ccp-Rev Ccp-Rev Ccp-Rev Ccp-Rev
(America/Chicago)
05/04 00:00 1.87 250 65.37 ---- 12.75
05/04 01:00 1.86 247 65.12 ---- 12.71
05/04 02:00 1.85 245 64.85 ---- 12.68
05/04 03:00 1.85 245 64.60 ---- 12.66
05/04 04:00 1.84 243 64.42 ---- 12.63
05/04 05:00 1.84 243 64.18 ---- 12.62
05/04 06:00 1.83 241 64.02 ---- 12.61
05/04 07:00 1.83 241 63.81 ---- 12.61
05/04 08:00 1.82 238 63.72 ---- 12.72
05/04 09:00 1.82 238 63.97 ---- 12.86
05/04 10:00 1.81 236 64.51 ---- 13.03
05/04 11:00 1.80 234 64.85 ---- 13.23
05/04 12:00 1.81 236 65.01 ---- 13.26
05/04 13:00 1.79 231 65.30 ---- 13.26
05/04 14:00 1.78 229 66.20 ---- 13.75
05/04 15:00 1.77 227 66.79 ---- 13.65
05/04 16:00 1.76 225 67.37 ---- 13.60
05/04 17:00 1.75 223 67.64 ---- 13.19
05/04 18:00 1.74 220 68.16 ---- 13.04
05/04 19:00 1.73 218 68.16 ---- 12.90
05/04 20:00 1.73 218 68.31 ---- 12.85
05/04 21:00 1.72 216 68.27 ---- 12.83
05/04 22:00 1.71 214 68.16 ---- 12.80
05/04 23:00 ---- ---- ---- ---- ----
Data processed at Tue 05May2026 03:13 GMT

NOTICE: If you are parsing this page

Please convert to using our Data API. Starting early 2026 we will be migrating to: https://water.usace.army.mil with modern pages rendered in JavaScript. When this migration completes you will no longer be able to scrape this page! CWMSDataAPI (CDA)

Timeseries IDs (TSIDs)

TSIDs used from left to right in the data table
HIND.Stage.Inst.1Hour.0.Ccp-Rev
HIND.Flow.Inst.1Hour.0.Ccp-Rev
HIND.Temp-Water.Inst.1Hour.0.Ccp-Rev
HIND.Cond.Inst.1Hour.0.Ccp-Rev
HIND.Volt-Battery Load.Inst.1Hour.0.Ccp-Rev

                            

All information presented herein is the property of the government of the United States of America and may be revised or deleted at any time without prior notice. Dissemination of this information without the expressed written consent of the Public Affairs Office, Tulsa District U.S. Army Corps of Engineers is strictly prohibited. These data are gathered electronically and, as presented, have NOT undergone any form of quality control. These data are NOT guaranteed to be valid or correct.